EW2751 Weather Reports


time (UTC)temp
F
wind
direction
speed
knots
gust
knots
rain 1hr
in
rain 24hr
in
rain mn
in
humidity
%
barometer
mb
20260503204531 60 169 2.6 5.2 0.00 0.00 0.00 80 1034.2
20260503204019 60 160 2.6 5.2 0.00 0.00 0.00 80 1034.3
20260503203530 60 162 1.7 4.3 0.00 0.00 0.00 80 1034.2
20260503203019 59 146 2.6 4.3 0.00 0.00 0.00 80 1034.1
20260503202519 59 172 1.7 4.3 0.00 0.00 0.00 81 1034.1
20260503202022 59 201 0.9 3.5 0.00 0.00 0.00 81 1034.2
20260503201536 59 182 0.9 3.5 0.00 0.00 0.00 82 1034.1
20260503201020 59 166 0.9 3.5 0.00 0.00 0.00 82 1034.2
20260503200519 59 177 0.9 4.3 0.00 0.00 0.00 82 1034.1
20260503200022 59 182 0.9 4.3 0.00 0.00 0.00 82 1034.1
20260503195519 59 177 1.7 3.5 0.00 0.00 0.00 82 1034.1
20260503195021 59 191 0.9 3.5 0.00 0.00 0.00 82 1034.1
20260503194523 59 187 0.0 2.6 0.00 0.00 0.00 82 1033.9
20260503194021 59 203 0.0 3.5 0.00 0.00 0.00 81 1034.0
20260503193520 58 205 0.9 4.3 0.00 0.00 0.00 81 1034.0
20260503193019 58 157 0.9 2.6 0.00 0.00 0.00 82 1034.0
20260503192521 58 141 0.0 2.6 0.00 0.00 0.00 82 1033.9
20260503192022 58 187 0.0 3.5 0.00 0.00 0.00 82 1033.8
20260503191532 58 177 0.9 2.6 0.00 0.00 0.00 82 1033.8
20260503191019 58 170 0.0 2.6 0.00 0.00 0.00 82 1033.8
20260503190520 58 173 0.9 2.6 0.00 0.00 0.00 83 1033.7
20260503190020 58 177 0.0 1.7 0.00 0.00 0.00 83 1033.7
20260503185530 58 172 0.0 0.9 0.00 0.00 0.00 83 1033.5
20260503185019 58 173 0.0 0.9 0.00 0.00 0.00 82 1033.5
20260503184519 58 173 0.0 1.7 0.00 0.00 0.00 82 1033.4
20260503184020 58 182 0.0 1.7 0.00 0.00 0.00 82 1033.5
20260503183521 58 182 0.0 1.7 0.00 0.00 0.00 82 1033.4
20260503183019 58 172 0.0 0.0 0.00 0.00 0.00 83 1033.4
20260503182531 58 172 0.0 0.0 0.00 0.00 0.00 83 1033.3
20260503182019 58 170 0.0 0.0 0.00 0.00 0.00 83 1033.3
20260503181520 58 170 0.0 0.0 0.00 0.00 0.00 83 1033.3
20260503181019 58 170 0.0 0.9 0.00 0.00 0.00 83 1033.2
20260503180520 58 171 0.0 1.7 0.00 0.00 0.00 84 1033.2
20260503180021 58 172 0.0 1.7 0.00 0.00 0.00 84 1033.2
20260503175520 58 172 0.0 1.7 0.00 0.00 0.00 84 1033.2
20260503175031 58 172 0.0 0.9 0.00 0.00 0.00 84 1033.1
20260503174521 58 171 0.0 1.7 0.00 0.00 0.00 84 1033.2
20260503174020 58 168 0.0 1.7 0.00 0.00 0.00 84 1033.2
20260503173520 58 170 0.0 0.9 0.00 0.00 0.00 83 1033.1
20260503173020 58 171 0.0 2.6 0.00 0.00 0.00 83 1033.0
20260503172522 58 163 0.9 2.6 0.00 0.00 0.00 83 1032.9
20260503172020 58 162 0.9 2.6 0.00 0.00 0.00 83 1032.9
20260503171519 58 157 0.9 2.6 0.00 0.00 0.00 83 1033.0
20260503171031 58 166 0.0 1.7 0.00 0.00 0.00 83 1033.0
20260503170531 58 165 0.0 2.6 0.00 0.00 0.00 83 1032.9
20260503150519 58 177 0.9 2.6 0.00 0.00 0.00 82 1033.4
20260503131017 59 170 0.0 2.6 0.00 0.00 0.00 82 1034.0
20260503130517 59 164 0.0 2.6 0.00 0.00 0.00 82 1034.0
20260503110517 60 200 0.0 0.0 0.00 0.00 0.00 79 1034.0
20260503053020 62 65 0.0 0.0 0.00 0.00 0.00 69 1032.3
20260503052519 62 64 0.0 0.0 0.00 0.00 0.00 67 1032.3
20260503031522 66 70 2.6 7.8 0.00 0.00 0.00 60 1032.3
20260503022508 66 91 0.9 7.0 0.00 0.00 0.00 61 1032.3
20260503011018 66 83 0.9 6.1 0.00 0.00 0.00 59 1032.9
20260503010522 68 73 0.9 7.8 0.00 0.00 0.00 57 1032.9
20260503010022 69 93 3.5 7.8 0.00 0.00 0.00 55 1033.0
20260503005521 68 157 0.0 1.7 0.00 0.00 0.00 57 1033.0
20260503005020 67 127 0.0 8.7 0.00 0.00 0.00 58 1033.0
20260503004531 66 68 5.2 9.6 0.00 0.00 0.00 58 1033.1
20260503004030 66 47 1.7 9.6 0.00 0.00 0.00 59 1033.2
20260503003521 67 81 4.3 9.6 0.00 0.00 0.00 59 1033.2
20260503000031 67 191 0.0 4.3 0.00 0.00 0.00 61 1033.6
20260503000019 67 168 0.0 4.3 0.00 0.00 0.00 60 1033.6
20260502230023 65 146 0.9 5.2 0.00 0.00 0.00 63 1034.3
20260502225022 66 177 2.6 4.3 0.00 0.00 0.00 63 1034.3
20260502224522 65 182 1.7 3.5 0.00 0.00 0.00 64 1034.3
20260502224021 65 177 0.9 3.5 0.00 0.00 0.00 66 1034.4
20260502223523 65 216 0.9 3.5 0.00 0.00 0.00 67 1034.4
20260502223022 65 202 0.9 3.5 0.00 0.00 0.00 67 1034.5
20260502222532 65 177 0.9 3.5 0.00 0.00 0.00 68 1034.5
20260502222017 65 198 0.0 4.3 0.00 0.00 0.00 69 1034.5
20260502221519 64 221 0.9 4.3 0.00 0.00 0.00 69 1034.4
20260502221027 64 193 0.0 3.5 0.00 0.00 0.00 70 1034.5
20260502220518 64 163 0.9 1.7 0.00 0.00 0.00 70 1034.5
20260502220020 64 177 0.0 1.7 0.00 0.00 0.00 71 1034.5
20260502215530 63 194 0.9 2.6 0.00 0.00 0.00 73 1034.6
20260502215019 63 216 0.9 3.5 0.00 0.00 0.00 74 1034.6
20260502214518 62 187 0.9 3.5 0.00 0.00 0.00 74 1034.5
20260502214016 62 139 0.9 3.5 0.00 0.00 0.00 76 1034.5
20260502213518 62 224 0.9 3.5 0.00 0.00 0.00 77 1034.5
20260502213018 61 162 1.7 3.5 0.00 0.00 0.00 78 1034.6
20260502212520 61 156 0.9 2.6 0.00 0.00 0.00 79 1034.6
20260502212018 60 169 0.9 2.6 0.00 0.00 0.00 80 1034.7
20260502211530 60 168 1.7 2.6 0.00 0.00 0.00 81 1034.7
20260502211017 59 166 0.9 4.3 0.00 0.00 0.00 82 1034.6
20260502210518 59 200 0.9 4.3 0.00 0.00 0.00 83 1034.6
20260502210019 59 182 0.9 3.5 0.00 0.00 0.00 83 1034.7
20260502205517 59 191 0.9 3.5 0.00 0.00 0.00 84 1034.7
20260502205019 58 191 0.9 3.5 0.00 0.00 0.00 85 1034.7